Location: Dumpton Point
(51.3500°N, 1.4433°E)
Time: 11:50:23
(UTC+00:00)

Envisat - Pass Details

Date: 11 December 2021
Orbit: 764 x 766 km, 98.2° (Epoch: 23 January)

Event Time Altitude Azimuth Distance (km) Brightness Sun altitude
Rises 04:29:33 0° 18° (NNE) 3,247 6.5 -29.8°
Reaches altitude 10° 04:31:59 10° 25° (NNE) 2,315 5.7 -29.4°
Maximum altitude 04:36:51 44° 98° (E) 1,054 4.0 -28.7°
Drops below altitude 10° 04:41:41 10° 170° (S) 2,297 5.6 -27.9°
Sets 04:44:05 0° 177° (S) 3,218 6.3 -27.5°
